Time_in_sec,gx,gy,gz
1323442415.55302429,0.07143113,0.00825104,-0.99741141
1323442415.60150814,0.07142943,0.00803026,-0.99741333
1323442415.65366769,0.07148085,0.00815528,-0.99740863
1323442415.70164013,0.07151725,0.00823265,-0.99740539
1323442415.75358701,0.07203777,0.00891196,-0.99736209
1323442415.80551291,0.07229246,0.00895043,-0.99734332
1323442415.85353136,0.07233736,0.00881383,-0.99734128
1323442415.91352677,0.07222805,0.00886377,-0.99734876
1323442415.95370245,0.07217379,0.00878776,-0.99735336
1323442416.00473976,0.07229426,0.00866423,-0.99734571
1323442416.05277634,0.07218362,0.00886481,-0.99735196
1323442416.10487819,0.07212290,0.00876246,-0.99735726
1323442416.15755582,0.07213915,0.00882692,-0.99735552
1323442416.20556474,0.07203843,0.00889018,-0.99736224
1323442416.25352430,0.07238142,0.00893850,-0.99733697
1323442416.30542469,0.07230964,0.00920207,-0.99733978
1323442416.35273576,0.07217004,0.00916214,-0.99735026
1323442416.40164495,0.07227183,0.00946652,-0.99734005
1323442416.45267630,0.07218751,0.00939398,-0.99734684
1323442416.50168943,0.07215794,0.00936786,-0.99734922
1323442416.55372620,0.07213073,0.00938449,-0.99735104
1323442416.60459614,0.07197165,0.00941255,-0.99736226
1323442416.65351462,0.07199758,0.00937111,-0.99736078
1323442416.70547485,0.07199193,0.00946617,-0.99736029
1323442416.75345445,0.07219544,0.00974858,-0.99734286
1323442416.80150867,0.07140740,0.00929426,-0.99740393
1323442416.85349298,0.07155806,0.00945810,-0.99739159
1323442416.90553117,0.07165709,0.00964811,-0.99738266
1323442416.95168471,0.07165834,0.00975110,-0.99738157
1323442417.00450826,0.07107029,0.00897790,-0.99743091
1323442417.05352497,0.07103681,0.00888247,-0.99743415
1323442417.10408854,0.07098851,0.00894671,-0.99743701
1323442417.15333605,0.07107328,0.00906292,-0.99742992
1323442417.20156479,0.07085964,0.00913495,-0.99744447
1323442417.25274563,0.07028784,0.00824281,-0.99749269
1323442417.30458403,0.07028812,0.00833261,-0.99749193
1323442417.36151958,0.07030368,0.00854558,-0.99748903
1323442417.40156722,0.07062937,0.00862800,-0.99746531
1323442417.45354557,0.07056147,0.00854392,-0.99747084
1323442417.50550890,0.07083909,0.00950260,-0.99744249
1323442417.55307674,0.07080706,0.00956052,-0.99744421
1323442417.60226583,0.07073115,0.00948196,-0.99745035
1323442417.65305591,0.07050978,0.00921611,-0.99746851
1323442417.70120263,0.07053166,0.00915877,-0.99746749
1323442417.75312042,0.07019640,0.00817310,-0.99749971
1323442417.80156994,0.07021721,0.00826677,-0.99749747
1323442417.85351491,0.07038322,0.00825619,-0.99748586
1323442417.90551734,0.07027046,0.00843083,-0.99749235
1323442417.95355439,0.07037849,0.00832937,-0.99748558
1323442418.00152373,0.07033236,0.00902298,-0.99748280
1323442418.05264163,0.07039386,0.00892633,-0.99747934
1323442418.10159135,0.07053957,0.00890975,-0.99746919
1323442418.15364337,0.07050906,0.00886072,-0.99747178
1323442418.20111370,0.07053564,0.00881293,-0.99747033
1323442418.25391293,0.07047779,0.00932177,-0.99746979
1323442418.30122900,0.07065955,0.00918368,-0.99745821
1323442418.35304618,0.07085485,0.00924886,-0.99744376
1323442418.40209246,0.07082254,0.00917578,-0.99744673
1323442418.45289493,0.07086690,0.00917429,-0.99744359
1323442418.50492740,0.07010346,0.00956753,-0.99749384
1323442418.56090093,0.07006176,0.00948432,-0.99749757
1323442418.60164642,0.07019453,0.00968851,-0.99748627
1323442418.65363359,0.07012736,0.00969807,-0.99749090
1323442418.70549321,0.06996986,0.00971680,-0.99750178
1323442418.75364447,0.06963507,0.00983118,-0.99752409
1323442418.80503130,0.06991231,0.01028274,-0.99750014
1323442418.85265398,0.06970679,0.01050345,-0.99751223
1323442418.90490627,0.06972144,0.01047812,-0.99751147
1323442418.95361853,0.06965859,0.01074920,-0.99751298
1323442419.00463009,0.07000745,0.01150411,-0.99748013
1323442419.05351758,0.06991520,0.01174202,-0.99748383
1323442419.11265421,0.06966016,0.01180445,-0.99750094
1323442419.15368390,0.06978312,0.01173127,-0.99749320
1323442419.20579314,0.07001945,0.01172556,-0.99747671
1323442419.25266695,0.06996943,0.01146407,-0.99748326
1323442419.30454087,0.06975160,0.01156018,-0.99749741
1323442419.35351729,0.06969415,0.01166154,-0.99750024
1323442419.40465736,0.06971278,0.01197710,-0.99749520
1323442419.45352840,0.06961518,0.01194933,-0.99750235
1323442419.50473166,0.06929835,0.01200845,-0.99752370
1323442419.55631423,0.06935858,0.01216162,-0.99751766
1323442419.60149455,0.06943302,0.01201339,-0.99751428
1323442419.65266371,0.06951413,0.01204409,-0.99750826
1323442419.70864272,0.06974582,0.01206981,-0.99749177
1323442419.75354958,0.07036831,0.01217509,-0.99744677
1323442419.80864978,0.07051871,0.01229648,-0.99743466
1323442419.85351729,0.07041762,0.01240344,-0.99744048
1323442419.90455651,0.07040419,0.01246631,-0.99744065
1323442419.95341873,0.07042400,0.01242441,-0.99743977
1323442420.00161767,0.07039048,0.01212105,-0.99744587
1323442420.05350900,0.07037292,0.01213447,-0.99744694
1323442420.10152960,0.07043046,0.01212863,-0.99744295
1323442420.16551113,0.07052819,0.01215075,-0.99743578
1323442420.20465803,0.07045946,0.01230438,-0.99743875
1323442420.25351691,0.07066146,0.01196514,-0.99742859
1323442420.30452180,0.07053452,0.01200442,-0.99743710
1323442420.35355854,0.07040213,0.01189449,-0.99744777
1323442420.40158105,0.07050901,0.01186149,-0.99744062
1323442420.45325327,0.07042595,0.01181372,-0.99744705
1323442420.50456405,0.07063243,0.01075972,-0.99744438
1323442420.55351281,0.07031646,0.01096939,-0.99746442
1323442420.60463476,0.07054788,0.01093668,-0.99744844
1323442420.65355825,0.07070176,0.01081691,-0.99743885
1323442420.70519757,0.07066613,0.01081063,-0.99744144
1323442420.75276232,0.07148062,0.01011888,-0.99739066
1323442420.80532193,0.07148720,0.01034682,-0.99738785
1323442420.85311532,0.07138958,0.01019243,-0.99739643
1323442420.90469623,0.07163924,0.01003893,-0.99738009
1323442420.96506715,0.07181505,0.01017643,-0.99736605
1323442421.00500298,0.07195613,0.01019578,-0.99735568
1323442421.05351901,0.07175028,0.01028008,-0.99736965
1323442421.11651802,0.07173874,0.01027496,-0.99737053
1323442421.15252161,0.07174636,0.01004835,-0.99737229
1323442421.20151544,0.07180545,0.01006414,-0.99736788
1323442421.25263023,0.07168695,0.01013486,-0.99737569
1323442421.30472708,0.07174371,0.01020403,-0.99737090
1323442421.35253453,0.07190615,0.01010970,-0.99736017
1323442421.40085316,0.07189502,0.00997769,-0.99736230
1323442421.45352077,0.07183498,0.00983053,-0.99736808
1323442421.51281381,0.07234745,0.01076630,-0.99732138
1323442421.55265808,0.07219777,0.01083525,-0.99733148
1323442421.60152459,0.07228575,0.01072189,-0.99732633
1323442421.65272999,0.07212003,0.01084743,-0.99733697
1323442421.70564246,0.07199473,0.01107996,-0.99734347
1323442421.75352526,0.07183934,0.01098045,-0.99735577
1323442421.80566907,0.07175621,0.01082830,-0.99736342
1323442421.85353160,0.07180841,0.01086041,-0.99735932
1323442421.90491962,0.07176543,0.01068094,-0.99736435
1323442421.95266652,0.07175539,0.01084359,-0.99736331
1323442422.00581598,0.07166666,0.01060936,-0.99737221
1323442422.05250311,0.07161924,0.01055034,-0.99737625
1323442422.10451031,0.07156039,0.01067689,-0.99737912
1323442422.16553140,0.07140985,0.01091794,-0.99738730
1323442422.20549870,0.07139839,0.01137015,-0.99738307
1323442422.25354195,0.07112273,0.01034458,-0.99741393
1323442422.30552888,0.07116073,0.01028796,-0.99741180
1323442422.35389447,0.07100233,0.01040628,-0.99742187
1323442422.40149426,0.07084210,0.01041966,-0.99743312
1323442422.45398092,0.07065971,0.01038946,-0.99744637
1323442422.50462151,0.07061782,0.00953773,-0.99745785
1323442422.55253029,0.07078035,0.00949467,-0.99744674
1323442422.60452104,0.07098820,0.00963061,-0.99743066
1323442422.66538668,0.07081377,0.00967113,-0.99744267
1323442422.70854878,0.07077279,0.00968736,-0.99744542
1323442422.75353432,0.07082241,0.00925014,-0.99744605
1323442422.80137730,0.07078436,0.00933039,-0.99744800
1323442422.85352898,0.07072135,0.00940899,-0.99745173
1323442422.90540290,0.07073763,0.00922754,-0.99745227
1323442422.95352459,0.07077802,0.00936446,-0.99744813
1323442423.00558853,0.07055704,0.00917369,-0.99746556
1323442423.05352569,0.07051786,0.00928707,-0.99746728
1323442423.10157084,0.07066859,0.00919367,-0.99745748
1323442423.15339327,0.07042352,0.00910070,-0.99747567
1323442423.20149541,0.07043877,0.00909466,-0.99747465
1323442423.25326228,0.07027549,0.00873023,-0.99748942
1323442423.30153656,0.07032437,0.00865972,-0.99748659
1323442423.36129808,0.07031028,0.00868827,-0.99748733
1323442423.40156341,0.07015049,0.00847130,-0.99750045
1323442423.45351529,0.07024081,0.00842413,-0.99749449
1323442423.50459576,0.07089895,0.00839984,-0.99744814
1323442423.55354524,0.07062104,0.00829132,-0.99746876
1323442423.60160279,0.07050821,0.00839679,-0.99747586
1323442423.65254354,0.07038881,0.00862148,-0.99748237
1323442423.70455575,0.07038493,0.00898482,-0.99747944
1323442423.76110196,0.07057121,0.00957695,-0.99746077
1323442423.80460334,0.07061458,0.00964171,-0.99745708
1323442423.85355401,0.07060458,0.00969187,-0.99745730
1323442423.91350865,0.07058588,0.00954279,-0.99746006
1323442423.95352530,0.07052662,0.00954792,-0.99746420
1323442424.00151372,0.07039967,0.00936829,-0.99747487
1323442424.05264449,0.07028777,0.00927714,-0.99748362
1323442424.10460901,0.07030906,0.00923142,-0.99748254
1323442424.15350723,0.07017028,0.00923425,-0.99749229
1323442424.20458055,0.07014918,0.00923808,-0.99749373
1323442424.25352859,0.06907310,0.00786676,-0.99758058
1323442424.31348562,0.06905281,0.00791425,-0.99758161
1323442424.35367131,0.06901032,0.00854367,-0.99757936
1323442424.40150070,0.06911187,0.00855543,-0.99757223
1323442424.45285439,0.06914638,0.00827804,-0.99757218
1323442424.50458288,0.06879228,0.00652256,-0.99760968
1323442424.55353451,0.06877903,0.00654755,-0.99761043
1323442424.60155177,0.06874813,0.00657790,-0.99761236
1323442424.65351892,0.06867286,0.00667639,-0.99761689
1323442424.70469666,0.06854636,0.00662644,-0.99762593
1323442424.75282598,0.06866707,0.00552108,-0.99762435
1323442424.80456972,0.06860814,0.00550902,-0.99762848
1323442424.85363221,0.06841163,0.00557221,-0.99764162
1323442424.90554953,0.06842374,0.00555899,-0.99764086
1323442424.96469259,0.06846740,0.00585577,-0.99763617
1323442425.00558758,0.06890964,0.00567238,-0.99760678
1323442425.05351949,0.06889265,0.00570507,-0.99760777
1323442425.10555983,0.06895079,0.00565337,-0.99760404
1323442425.15255427,0.06894537,0.00559427,-0.99760475
1323442425.20153403,0.06894108,0.00552372,-0.99760544
1323442425.25258112,0.06837454,0.00457729,-0.99764922
1323442425.30157971,0.06834923,0.00458018,-0.99765094
1323442425.35355091,0.06809593,0.00430131,-0.99766951
1323442425.40158010,0.06829183,0.00420019,-0.99765655
1323442425.45353699,0.06826513,0.00418636,-0.99765843
1323442425.50455999,0.06774573,0.00369403,-0.99769578
1323442425.55488729,0.06760080,0.00351689,-0.99770625
1323442425.60148168,0.06756952,0.00360491,-0.99770806
1323442425.65347695,0.06725738,0.00353989,-0.99772938
1323442425.70145583,0.06737067,0.00361200,-0.99772148
1323442425.76140141,0.06736516,0.00390529,-0.99772074
1323442425.80698156,0.06713419,0.00381458,-0.99773666
1323442425.85352230,0.06713658,0.00374286,-0.99773677
1323442425.90162349,0.06707508,0.00375629,-0.99774086
1323442425.95346498,0.06693001,0.00377017,-0.99775055
1323442426.00154638,0.06640806,0.00438008,-0.99778293
1323442426.05357838,0.06627211,0.00441971,-0.99779180
1323442426.10481048,0.06618197,0.00444612,-0.99779766
1323442426.15656948,0.06610538,0.00448482,-0.99780257
1323442426.20463538,0.06578553,0.00450696,-0.99782361
1323442426.25354910,0.06546785,0.00457194,-0.99784420
1323442426.30555129,0.06538297,0.00471508,-0.99784910
1323442426.35258722,0.06530021,0.00479134,-0.99785416
1323442426.40153480,0.06520503,0.00464240,-0.99786109
1323442426.45326495,0.06537148,0.00442089,-0.99785120
1323442426.50157166,0.06553560,0.00498005,-0.99783780
1323442426.55350733,0.06557646,0.00494629,-0.99783529
1323442426.60516906,0.06553145,0.00482942,-0.99783882
1323442426.65364146,0.06548459,0.00487357,-0.99784168
1323442426.70112562,0.06549543,0.00479771,-0.99784134
1323442426.75300622,0.06481007,0.00438463,-0.99788798
1323442426.80149126,0.06466077,0.00423963,-0.99789830
1323442426.85273457,0.06474113,0.00424582,-0.99789306
1323442426.90105319,0.06446135,0.00441483,-0.99791044
1323442426.96104884,0.06448040,0.00427970,-0.99790980
1323442427.00165987,0.06430863,0.00522859,-0.99791636
1323442427.05351996,0.06430819,0.00520564,-0.99791651
1323442427.10452580,0.06427924,0.00516533,-0.99791858
1323442427.15312147,0.06412436,0.00514384,-0.99792866
1323442427.20149493,0.06419056,0.00510462,-0.99792460
1323442427.25274348,0.06461163,0.00675714,-0.99788761
1323442427.30158019,0.06438665,0.00679398,-0.99790190
1323442427.36167288,0.06454661,0.00645545,-0.99789381
1323442427.40465307,0.06453204,0.00648662,-0.99789455
1323442427.45351863,0.06450297,0.00646356,-0.99789658
1323442427.50558257,0.06561775,0.00855143,-0.99780819
1323442427.55352545,0.06577255,0.00864998,-0.99779715
1323442427.60945630,0.06593914,0.00886890,-0.99778423
1323442427.65351892,0.06613385,0.00896560,-0.99777048
1323442427.70551872,0.06619884,0.00894544,-0.99776635
1323442427.75273395,0.06693431,0.00991550,-0.99770811
1323442427.80552292,0.06691051,0.01011492,-0.99770771
1323442427.85351777,0.06672661,0.01018881,-0.99771927
1323442427.91355348,0.06667140,0.01010494,-0.99772382
1323442427.95351815,0.06654422,0.01028764,-0.99773044
1323442428.00662994,0.06783033,0.01289480,-0.99761354
1323442428.05352187,0.06782825,0.01313071,-0.99761060
1323442428.10450101,0.06778670,0.01313176,-0.99761341
1323442428.16460109,0.06777952,0.01302878,-0.99761525
1323442428.20552421,0.06796577,0.01321416,-0.99760014
1323442428.25355554,0.06876402,0.01491286,-0.99752149
1323442428.30459070,0.06872977,0.01480006,-0.99752553
1323442428.35257387,0.06856529,0.01506015,-0.99753295
1323442428.40150857,0.06835012,0.01508877,-0.99754729
1323442428.45254970,0.06852167,0.01530544,-0.99753222
1323442428.50472045,0.06990529,0.01680522,-0.99741207
1323442428.56146979,0.06974890,0.01710284,-0.99741796
1323442428.60564661,0.06981807,0.01710901,-0.99741301
1323442428.65355897,0.06997606,0.01714935,-0.99740125
1323442428.71355605,0.06993830,0.01711811,-0.99740443
1323442428.75255084,0.07002162,0.01662103,-0.99740700
1323442428.80518818,0.07004423,0.01681200,-0.99740221
1323442428.85425234,0.06997481,0.01689152,-0.99740574
1323442428.90464544,0.06993738,0.01691108,-0.99740803
1323442428.95296144,0.06995365,0.01716871,-0.99740249
1323442429.00156879,0.06843377,0.01609129,-0.99752588
1323442429.05354524,0.06817785,0.01592156,-0.99754613
1323442429.10159183,0.06819285,0.01598908,-0.99754403
1323442429.15361834,0.06809795,0.01587782,-0.99755229
1323442429.20150661,0.06812145,0.01587116,-0.99755079
1323442429.25264049,0.06713761,0.01533076,-0.99762594
1323442429.30457115,0.06680480,0.01519296,-0.99765039
1323442429.36153650,0.06655036,0.01539152,-0.99766435
1323442429.40156674,0.06656553,0.01549001,-0.99766181
1323442429.45351911,0.06653595,0.01561298,-0.99766187
1323442429.50514936,0.06631047,0.01305694,-0.99771361
1323442429.55256534,0.06611802,0.01282817,-0.99772934
1323442429.60265946,0.06611223,0.01299537,-0.99772756
1323442429.65328932,0.06595874,0.01310291,-0.99773632
1323442429.70155525,0.06597000,0.01332903,-0.99773258
1323442429.76157451,0.06641378,0.01068539,-0.99773495
1323442429.80156589,0.06637315,0.01082318,-0.99773617
1323442429.85355234,0.06646633,0.01064544,-0.99773188
1323442429.90552664,0.06616565,0.01064804,-0.99775184
1323442429.95367455,0.06595764,0.01030109,-0.99776925
1323442430.00153279,0.06672968,0.00783417,-0.99774033
1323442430.05366349,0.06661700,0.00789470,-0.99774739
1323442430.10552478,0.06674528,0.00780958,-0.99773948
1323442430.15105629,0.06656226,0.00796723,-0.99775046
1323442430.20501876,0.06654125,0.00801376,-0.99775149
1323442430.25356007,0.06769913,0.00743370,-0.99767809
1323442430.30091405,0.06775915,0.00736658,-0.99767451
1323442430.35366392,0.06775927,0.00734587,-0.99767466
1323442430.40488100,0.06790742,0.00726195,-0.99766520
1323442430.45256019,0.06789764,0.00738073,-0.99766499
1323442430.50092077,0.06852725,0.00552848,-0.99763393
1323442430.56086588,0.06863019,0.00544965,-0.99762728
1323442430.60159349,0.06849342,0.00565526,-0.99763554
1323442430.65361381,0.06867632,0.00576328,-0.99762235
1323442430.71446204,0.06853275,0.00602635,-0.99763067
1323442430.75279284,0.06833406,0.00491656,-0.99765038
1323442430.80568242,0.06834862,0.00503792,-0.99764878
1323442430.85370469,0.06836115,0.00507351,-0.99764774
1323442430.90565968,0.06833166,0.00511759,-0.99764953
1323442430.95355868,0.06840956,0.00502438,-0.99764467
1323442431.00567508,0.06815145,0.00459651,-0.99766440
1323442431.05354810,0.06818842,0.00455352,-0.99766207
1323442431.10485077,0.06821822,0.00441502,-0.99766065
1323442431.15369630,0.06792894,0.00443230,-0.99768032
1323442431.20796490,0.06786869,0.00424207,-0.99768524
1323442431.25259328,0.06772503,0.00442415,-0.99769422
1323442431.30460596,0.06776279,0.00424975,-0.99769241
1323442431.35158205,0.06781216,0.00417130,-0.99768939
1323442431.40461016,0.06786683,0.00428714,-0.99768518
1323442431.45352077,0.06811155,0.00419909,-0.99766887
1323442431.50550580,0.06732903,0.00466714,-0.99771991
1323442431.55354095,0.06740974,0.00466683,-0.99771446
1323442431.60469699,0.06728337,0.00479253,-0.99772240
1323442431.65644884,0.06731537,0.00464767,-0.99772092
1323442431.70457792,0.06737597,0.00471538,-0.99771651
1323442431.76505351,0.06650080,0.00442046,-0.99777658
1323442431.80863500,0.06657104,0.00445562,-0.99777174
1323442431.85358763,0.06667661,0.00463108,-0.99776389
1323442431.90134764,0.06656715,0.00479506,-0.99777043
1323442431.95398951,0.06646613,0.00500764,-0.99777612
1323442432.00149417,0.06584838,0.00464487,-0.99781883
1323442432.05371332,0.06602812,0.00454604,-0.99780741
1323442432.10156512,0.06603437,0.00450316,-0.99780719
1323442432.15295124,0.06588185,0.00457208,-0.99781696
1323442432.20161104,0.06569479,0.00455758,-0.99782936
1323442432.26151085,0.06530976,0.00454059,-0.99785471
1323442432.30153298,0.06527968,0.00470512,-0.99785591
1323442432.35252404,0.06526651,0.00481980,-0.99785623
1323442432.40153050,0.06534615,0.00485393,-0.99785085
1323442432.45325351,0.06520828,0.00476501,-0.99786030
1323442432.50467348,0.06502509,0.00574590,-0.99786709
1323442432.55364394,0.06491587,0.00557901,-0.99787515
1323442432.60166121,0.06493282,0.00573937,-0.99787313
1323442432.65352678,0.06488094,0.00584412,-0.99787590
1323442432.70457315,0.06480807,0.00594831,-0.99788002
1323442432.75351381,0.06352389,0.00466533,-0.99796941
1323442432.80615234,0.06348178,0.00439449,-0.99797332
1323442432.85302615,0.06342519,0.00431954,-0.99797725
1323442432.90458059,0.06330477,0.00423937,-0.99798524
1323442432.96102524,0.06334727,0.00440828,-0.99798181
1323442433.00264978,0.06423162,0.00520589,-0.99792144
1323442433.05351806,0.06425417,0.00515337,-0.99792026
1323442433.10090971,0.06439197,0.00507189,-0.99791179
1323442433.15250206,0.06449527,0.00502861,-0.99790534
1323442433.20149446,0.06468118,0.00514755,-0.99789270
1323442433.25428700,0.06641946,0.00688656,-0.99776802
1323442433.30096269,0.06637870,0.00680831,-0.99777127
1323442433.36166644,0.06639390,0.00693940,-0.99776936
1323442433.40077686,0.06640172,0.00672225,-0.99777033
